Retour au catalogue

STARLINK-5686

ActifCommunicationsVLEO
NORAD 55450·PAYLOAD·🇺🇸 United States

Lancé Feb 2, 2023 depuis Cape Canaveral Space Force Station

Loading…

Prochains Passages (prochaines 24 heures)

TLE

FraisSource: CelesTrak SupGP

Époque: Sep 14, 2026, 22:08 UTC

1 55450C 23015B   26257.92270833 -.00056400  00000+0 -20428-2 0  2577
2 55450  43.0039 340.3034 0001837 289.4377 289.9523 15.27605600    17

Suivez STARLINK-5686 en temps réel avec AllMySat

Download on the App Store